Weather History for West Palm Beach, FL

Change the Weather History Date:

Thursday, March 29, 2012

  Actual Average Record
Temperature  
Mean Temperature 72 °F 72 °F  
Max Temperature 80 °F 80 °F 92 °F (1909)
Min Temperature 64 °F 64 °F 49 °F (1955)
Degree Days  
Heating Degree Days 0 0  
Month to date heating degree days 3 22  
Since 1 July heating degree days 112 227  
Cooling Degree Days 7 7  
Month to date cooling degree days 258 179  
Year to date cooling degree days 574 414  
Growing Degree Days 22 (Base 50)    
Moisture  
Dew Point 61 °F    
Average Humidity 76    
Maximum Humidity 100    
Minimum Humidity 52    
Precipitation  
Precipitation 0.00 in 0.14 in 5.15 in (1982)
Month to date precipitation 1.82 4.28  
Year to date precipitation 6.02 10.23  
Snow  
Snow 0.00 in - - ()
Month to date snowfall 0.0  
Since 1 July snowfall 0.0  
Snow Depth 0.00 in    
Sea Level Pressure  
Sea Level Pressure 30.04 in    
Wind  
Wind Speed 5 mph (SE)    
Max Wind Speed 14 mph    
Max Gust Speed 24 mph    
Visibility 10 miles    
Events      
T = Trace of Precipitation, MM = Missing Value Source: NWS Daily Summary

Daily Weather History Graph

Daily Weather History Graph

Search for Another Location

Airport:

Trip Planner

Search our weather history database for the weather conditions in past years. The results will help you decide how hot, cold, wet, or windy it might be!

Date:

Astronomy

Mar. 29, 2012 Rise Set
Actual Time 7:13 AM EDT 7:36 PM EDT
Civil Twilight 6:50 AM EDT 7:59 PM EDT
Nautical Twilight 6:23 AM EDT 8:26 PM EDT
Astronomical Twilight 5:56 AM EDT 8:54 PM EDT
Moon 11:48 AM EDT (3/29) 12:58 AM EDT (3/29)
Length of Visible Light 13h 08m
Length of Day
12h 22m
Waxing Crescent, 39% of the Moon is Illuminated
Mar 29
Waxing Crescent
Mar 30
First Quarter
Apr 6
Full
Apr 13
Last Quarter
Apr 21
New

Hourly Weather History & Observations

Time (EDT) Temp. Dew Point Humidity Pressure Visibility Wind Dir Wind Speed Gust Speed Precip Events Conditions
12:53 AM 71.1 °F 63.0 °F 75% 30.09 in 10.0 mi SE 5.8 mph - N/A   Scattered Clouds
1:53 AM 70.0 °F 62.1 °F 76% 30.06 in 10.0 mi SE 5.8 mph - N/A   Scattered Clouds
2:53 AM 71.1 °F 63.0 °F 75% 30.04 in 10.0 mi SSE 6.9 mph - N/A   Scattered Clouds
3:53 AM 69.1 °F 63.0 °F 81% 30.02 in 10.0 mi Calm Calm - N/A   Mostly Cloudy
4:53 AM 64.9 °F 62.1 °F 90% 30.02 in 10.0 mi Calm Calm - N/A   Scattered Clouds
5:53 AM 64.0 °F 62.1 °F 93% 30.03 in 10.0 mi NW 3.5 mph - N/A   Scattered Clouds
6:53 AM 64.9 °F 63.0 °F 93% 30.04 in 10.0 mi Calm Calm - N/A   Scattered Clouds
7:53 AM 64.9 °F 64.0 °F 97% 30.05 in 10.0 mi Calm Calm - N/A   Scattered Clouds
8:53 AM 71.1 °F 64.9 °F 81% 30.08 in 10.0 mi West 3.5 mph - N/A   Scattered Clouds
9:53 AM 73.9 °F 62.1 °F 66% 30.08 in 10.0 mi Variable 4.6 mph - N/A   Scattered Clouds
10:53 AM 75.9 °F 60.1 °F 58% 30.09 in 10.0 mi Calm Calm - N/A   Mostly Cloudy
11:53 AM 78.1 °F 60.1 °F 54% 30.08 in 10.0 mi Calm Calm - N/A   Mostly Cloudy
12:53 PM 79.0 °F 60.1 °F 52% 30.06 in 10.0 mi East 10.4 mph - N/A   Mostly Cloudy
1:53 PM 79.0 °F 59.0 °F 50% 30.04 in 10.0 mi East 12.7 mph 17.3 mph N/A   Scattered Clouds
2:53 PM 79.0 °F 61.0 °F 54% 30.03 in 10.0 mi East 6.9 mph - N/A   Mostly Cloudy
3:53 PM 79.0 °F 60.1 °F 52% 30.00 in 10.0 mi East 5.8 mph - N/A   Scattered Clouds
4:53 PM 78.1 °F 61.0 °F 56% 30.00 in 10.0 mi ESE 8.1 mph - N/A   Scattered Clouds
5:53 PM 77.0 °F 60.1 °F 56% 30.00 in 10.0 mi SE 10.4 mph - N/A   Scattered Clouds
6:53 PM 73.9 °F 60.1 °F 62% 30.01 in 10.0 mi SE 8.1 mph - N/A   Scattered Clouds
7:53 PM 73.0 °F 60.1 °F 64% 30.02 in 10.0 mi SE 6.9 mph - N/A   Scattered Clouds
8:53 PM 72.0 °F 60.1 °F 66% 30.02 in 10.0 mi SE 6.9 mph - N/A   Scattered Clouds
9:53 PM 71.1 °F 60.1 °F 68% 30.04 in 10.0 mi SE 5.8 mph - N/A   Partly Cloudy
10:53 PM 71.1 °F 60.1 °F 68% 30.03 in 10.0 mi SSE 5.8 mph - N/A   Partly Cloudy
11:53 PM 70.0 °F 60.1 °F 71% 30.04 in 10.0 mi SE 4.6 mph - N/A   Partly Cloudy